Hutchinson, KS

12:20 PM CDT on September 16, 2019 (GMT -0500)
Hutchinson Municipal

Weather History for KHUT - July, 2019

Change the Weather History Date:

Friday, July 12, 2019

  Actual Average Record
Temperature  
Mean Temperature 74 °F -  
Max Temperature 89 °F 90 °F 102 °F (2011)
Min Temperature 60 °F 65 °F 57 °F (1999)
Cooling Degree Days 10    
Growing Degree Days 24 (Base 50)    
Moisture  
Dew Point 62 °F    
Average Humidity 65    
Maximum Humidity 93    
Minimum Humidity 39    
Precipitation  
Precipitation 0.00 in - - ()
Sea Level Pressure  
Sea Level Pressure 29.94 in    
Wind  
Wind Speed 3 mph (ESE)    
Max Wind Speed 8 mph    
Max Gust Speed -    
Visibility 10 miles    
Events      
Averages and records for this station are not official NWS values.
T = Trace of Precipitation, MM = Missing Value Source: NWS Daily Summary

Daily Weather History Graph

Daily Weather History Graph

Search for Another Location

Airport or City:

Astronomy

Jul. 12, 2019 Rise Set
Actual Time 6:18 AM CDT 8:55 PM CDT
Civil Twilight 5:47 AM CDT 9:26 PM CDT
Nautical Twilight 5:09 AM CDT 10:04 PM CDT
Astronomical Twilight 4:26 AM CDT 10:47 PM CDT
Moon 5:17 PM CDT (7/12) 3:00 AM CDT (7/12)
Length of Visible Light 15h 38m
Length of Day
14h 36m
Waxing Gibbous, 83% of the Moon is Illuminated
Jul 12
Waxing Gibbous
Jul 16
Full
Jul 24
Last Quarter
Jul 31
New
Aug 7
First Quarter

Hourly Weather History & Observations

Time (CDT) Temp. Heat Index Dew Point Humidity Pressure Visibility Wind Dir Wind Speed Gust Speed Precip Events Conditions
12:52 AM 66.0 °F - 61.0 °F 84% 29.97 in 10.0 mi Calm Calm - N/A   Clear
1:52 AM 64.0 °F - 60.1 °F 87% 29.97 in 10.0 mi Calm Calm - N/A   Clear
2:52 AM 63.0 °F - 60.1 °F 90% 29.98 in 10.0 mi Calm Calm - N/A   Clear
3:52 AM 63.0 °F - 60.1 °F 90% 29.96 in 10.0 mi Calm Calm - N/A   Clear
4:52 AM 63.0 °F - 60.1 °F 90% 29.96 in 10.0 mi Calm Calm - N/A   Clear
5:52 AM 60.1 °F - 57.9 °F 93% 29.96 in 10.0 mi Calm Calm - N/A   Clear
6:52 AM 62.1 °F - 59.0 °F 90% 29.96 in 8.0 mi Calm Calm - N/A   Clear
7:52 AM 70.0 °F - 63.0 °F 78% 29.96 in 10.0 mi SSE 3.5 mph - N/A   Clear
8:52 AM 75.0 °F - 64.0 °F 69% 29.96 in 10.0 mi SE 4.6 mph - N/A   Clear
9:52 AM 79.0 °F - 63.0 °F 58% 29.97 in 10.0 mi SSE 8.1 mph - N/A   Clear
10:52 AM 82.0 °F 83.0 °F 62.1 °F 51% 29.96 in 10.0 mi SSE 5.8 mph - N/A   Clear
11:52 AM 84.0 °F 84.4 °F 61.0 °F 46% 29.96 in 10.0 mi Variable 6.9 mph - N/A   Clear
12:52 PM 86.0 °F 86.1 °F 61.0 °F 43% 29.95 in 10.0 mi East 4.6 mph - N/A   Clear
1:52 PM 88.0 °F 88.7 °F 63.0 °F 43% 29.93 in 10.0 mi East 8.1 mph - N/A   Clear
2:52 PM 88.0 °F 88.4 °F 62.1 °F 42% 29.93 in 10.0 mi East 6.9 mph - N/A   Clear
3:52 PM 89.1 °F 89.3 °F 62.1 °F 40% 29.92 in 10.0 mi ENE 4.6 mph - N/A   Clear
4:52 PM 89.1 °F 89.3 °F 62.1 °F 40% 29.90 in 10.0 mi Variable 6.9 mph - N/A   Clear
5:52 PM 89.1 °F 89.3 °F 62.1 °F 40% 29.89 in 10.0 mi East 6.9 mph - N/A   Clear
6:52 PM 88.0 °F 87.6 °F 60.1 °F 39% 29.88 in 10.0 mi ESE 8.1 mph - N/A   Clear
7:52 PM 84.9 °F 85.0 °F 61.0 °F 44% 29.88 in 10.0 mi ESE 4.6 mph - N/A   Clear
8:52 PM 75.0 °F - 64.0 °F 69% 29.88 in 10.0 mi ESE 6.9 mph - N/A   Clear
9:52 PM 72.0 °F - 64.0 °F 76% 29.90 in 10.0 mi ESE 6.9 mph - N/A   Clear
10:52 PM 71.1 °F - 64.9 °F 81% 29.91 in 10.0 mi ESE 6.9 mph - N/A   Clear
11:52 PM 69.1 °F - 64.9 °F 87% 29.93 in 10.0 mi SE 3.5 mph - N/A   Clear